{"data":{"norad_id":59721,"intl_designator":"2024-088P","name":"STARLINK-31834","alt_names":[],"object_type":"PAYLOAD","status":"ACTIVE","operator":null,"country":"US","launch_date":"2024-05-10","launch_site_code":"AFWTR","launch_vehicle":null,"mission":null,"orbit_class":"UNKNOWN","rcs_meters":null,"size_class":null,"mass_kg":null,"dimensions":null,"purposes":["comms"],"wikipedia_slug":null,"has_3d_model":false,"image_url":null,"decayed_at":null,"tle_current":{"epoch":"2026-05-24T17:50:07.262304Z","epoch_age_seconds":91238,"freshness":"FRESH","line1":"1 59721U 24088P   26144.74313961  .00000431  00000+0  26666-4 0  9994","line2":"2 59721  53.1598 146.8356 0001084  72.7246 287.3874 15.30195753115501","mean_motion":15.30195753,"eccentricity":0.0001084,"inclination_deg":53.1598,"raan_deg":146.8356,"arg_perigee_deg":72.7246,"mean_anomaly_deg":287.3874,"bstar":2.6666e-5,"rev_number":11550,"period_min":94.105606892244,"perigee_km":474.4848454862,"apogee_km":475.97065496405,"semimajor_km":6853.3647502251,"source":"CELESTRAK","updated_at":"2026-05-25T13:38:19.048569Z"}}}